SLI315 MMTO-MMGL

Flight info

Callsign SLI315
Flight time N/A
Altitude 32000
Route OVAGO2D OVAGO UT123 IGSON IGSO1B
Aircraft E145/M-SDFGIRWY/LB1

Departure

Time 2026-04-22 03:04
Airport Adolfo López Mateos International Airport (MMTO)

Arrival

Time N/A
Airport Guadalajara International Airport (MMGL)
Time Latitude Longitude Altitude Speed Heading
2026-04-22 02:36 19.33825 -99.56974 8490 ft 0 kts 247°
2026-04-22 02:52 19.33830 -99.56961 8491 ft 2 kts 247°
2026-04-22 02:52 19.33836 -99.56947 8491 ft 2 kts 247°
2026-04-22 02:52 19.33842 -99.56932 8491 ft 2 kts 247°
2026-04-22 02:52 19.33847 -99.56918 8491 ft 2 kts 247°
2026-04-22 02:53 19.33853 -99.56903 8491 ft 1 kts 247°
2026-04-22 02:53 19.33857 -99.56894 8491 ft 2 kts 229°
2026-04-22 02:53 19.33870 -99.56885 8491 ft 2 kts 191°
2026-04-22 02:53 19.33883 -99.56886 8491 ft 0 kts 158°
2026-04-22 02:54 19.33886 -99.56887 8491 ft 0 kts 156°
2026-04-22 02:58 19.33882 -99.56885 8491 ft 1 kts 156°
2026-04-22 02:58 19.33871 -99.56881 8491 ft 2 kts 157°
2026-04-22 02:58 19.33850 -99.56871 8491 ft 4 kts 157°
2026-04-22 02:59 19.33809 -99.56853 8491 ft 7 kts 157°
2026-04-22 02:59 19.33753 -99.56829 8491 ft 9 kts 157°
2026-04-22 02:59 19.33683 -99.56796 8491 ft 12 kts 156°
2026-04-22 02:59 19.33592 -99.56755 8491 ft 16 kts 156°
2026-04-22 03:00 19.33468 -99.56699 8491 ft 20 kts 156°
2026-04-22 03:00 19.33332 -99.56638 8491 ft 21 kts 156°
2026-04-22 03:00 19.33191 -99.56574 8491 ft 22 kts 156°
2026-04-22 03:00 19.33049 -99.56509 8491 ft 22 kts 156°
2026-04-22 03:01 19.32901 -99.56442 8491 ft 23 kts 156°
2026-04-22 03:01 19.32750 -99.56374 8491 ft 23 kts 157°
2026-04-22 03:01 19.32598 -99.56304 8491 ft 24 kts 156°
2026-04-22 03:01 19.32440 -99.56234 8491 ft 24 kts 157°
2026-04-22 03:02 19.32283 -99.56162 8491 ft 25 kts 156°
2026-04-22 03:02 19.32120 -99.56089 8490 ft 25 kts 156°
2026-04-22 03:02 19.32001 -99.56023 8490 ft 16 kts 150°
2026-04-22 03:02 19.31975 -99.55923 8490 ft 16 kts 66°
2026-04-22 03:03 19.32068 -99.55868 8489 ft 28 kts 338°
2026-04-22 03:03 19.32478 -99.56049 8489 ft 95 kts 335°
2026-04-22 03:03 19.33265 -99.56404 8489 ft 146 kts 337°
2026-04-22 03:03 19.34284 -99.56864 8682 ft 167 kts 336°
2026-04-22 03:04 19.35416 -99.57427 9040 ft 190 kts 333°
2026-04-22 03:04 19.36660 -99.58003 9613 ft 203 kts 339°
2026-04-22 03:04 19.37995 -99.58590 10265 ft 213 kts 337°
2026-04-22 03:04 19.39426 -99.59231 10791 ft 225 kts 337°
2026-04-22 03:05 19.40911 -99.59898 11315 ft 237 kts 337°
2026-04-22 03:05 19.42456 -99.60592 11830 ft 243 kts 337°
2026-04-22 03:05 19.44052 -99.61309 12242 ft 254 kts 337°
2026-04-22 03:05 19.45683 -99.62042 12789 ft 258 kts 338°
2026-04-22 03:06 19.47334 -99.62785 13437 ft 258 kts 337°
2026-04-22 03:06 19.48774 -99.63910 13978 ft 263 kts 308°
2026-04-22 03:06 19.49468 -99.65709 14493 ft 270 kts 277°
2026-04-22 03:06 19.49282 -99.67696 14904 ft 280 kts 252°
2026-04-22 03:07 19.48360 -99.69544 15321 ft 289 kts 238°
2026-04-22 03:07 19.47212 -99.71332 15711 ft 297 kts 236°
2026-04-22 03:07 19.45998 -99.73138 16098 ft 305 kts 235°
2026-04-22 03:07 19.44752 -99.74974 16483 ft 312 kts 235°
2026-04-22 03:08 19.43465 -99.76868 16870 ft 319 kts 235°
2026-04-22 03:08 19.42151 -99.78798 17255 ft 325 kts 235°
2026-04-22 03:08 19.40835 -99.80733 17634 ft 331 kts 235°
2026-04-22 03:08 19.39475 -99.82730 18019 ft 336 kts 235°
2026-04-22 03:09 19.38095 -99.84757 18403 ft 341 kts 235°
2026-04-22 03:09 19.36712 -99.86787 18795 ft 344 kts 235°
2026-04-22 03:09 19.35334 -99.88809 19661 ft 332 kts 235°
2026-04-22 03:09 19.34001 -99.90765 20267 ft 329 kts 235°
2026-04-22 03:10 19.32650 -99.92748 20637 ft 334 kts 235°
2026-04-22 03:10 19.31279 -99.94757 21055 ft 336 kts 235°
2026-04-22 03:10 19.29912 -99.96761 21492 ft 337 kts 235°
2026-04-22 03:10 19.28541 -99.98769 21911 ft 339 kts 235°
2026-04-22 03:11 19.27147 -100.00810 22322 ft 341 kts 235°
2026-04-22 03:11 19.25770 -100.02827 22718 ft 343 kts 235°
2026-04-22 03:11 19.24362 -100.04888 23108 ft 345 kts 235°
2026-04-22 03:11 19.22953 -100.06950 23487 ft 347 kts 235°
2026-04-22 03:12 19.21547 -100.09003 23858 ft 349 kts 235°
2026-04-22 03:12 19.19031 -100.13408 24542 ft 351 kts 257°
2026-04-22 03:12 19.18931 -100.15908 25157 ft 340 kts 281°
2026-04-22 03:13 19.19594 -100.18250 25956 ft 328 kts 288°
2026-04-22 03:13 19.20298 -100.20514 26409 ft 326 kts 288°
2026-04-22 03:13 19.21021 -100.22803 26799 ft 327 kts 288°
2026-04-22 03:13 19.21735 -100.25055 27237 ft 325 kts 288°
2026-04-22 03:14 19.22453 -100.27314 27686 ft 323 kts 288°
2026-04-22 03:14 19.23171 -100.29575 28122 ft 322 kts 288°
2026-04-22 03:14 19.23874 -100.31786 28532 ft 320 kts 288°
2026-04-22 03:14 19.24583 -100.34019 28938 ft 319 kts 288°
2026-04-22 03:15 19.25290 -100.36246 29338 ft 318 kts 288°
2026-04-22 03:15 19.25989 -100.38444 29730 ft 317 kts 288°
2026-04-22 03:15 19.26686 -100.40642 30115 ft 316 kts 288°
2026-04-22 03:15 19.27391 -100.42866 30499 ft 314 kts 288°
2026-04-22 03:16 19.28077 -100.45029 30866 ft 313 kts 288°
2026-04-22 03:16 19.28766 -100.47204 31181 ft 312 kts 288°
2026-04-22 03:16 19.29454 -100.49377 31405 ft 312 kts 288°
2026-04-22 03:16 19.30140 -100.51545 31602 ft 312 kts 288°
2026-04-22 03:17 19.30827 -100.53715 31796 ft 312 kts 288°
2026-04-22 03:17 19.31518 -100.55900 32024 ft 313 kts 287°
2026-04-22 03:17 19.32207 -100.58079 32301 ft 313 kts 287°
2026-04-22 03:17 19.32912 -100.60310 32329 ft 322 kts 287°
2026-04-22 03:18 19.34370 -100.64928 32294 ft 342 kts 287°
2026-04-22 03:18 19.35890 -100.69749 32295 ft 360 kts 287°
2026-04-22 03:19 19.37585 -100.74877 32299 ft 376 kts 288°
2026-04-22 03:19 19.39410 -100.80161 32307 ft 391 kts 288°
2026-04-22 03:20 19.41295 -100.85634 32315 ft 404 kts 288°
2026-04-22 03:20 19.43246 -100.91305 32310 ft 416 kts 288°
2026-04-22 03:21 19.45255 -100.97154 32304 ft 426 kts 289°
2026-04-22 03:21 19.47300 -101.03114 32301 ft 436 kts 289°
2026-04-22 03:22 19.49375 -101.09167 32306 ft 444 kts 289°
2026-04-22 03:22 19.51503 -101.15382 32311 ft 451 kts 289°
2026-04-22 03:23 19.53646 -101.21653 32316 ft 456 kts 289°
2026-04-22 03:23 19.55817 -101.28011 32322 ft 460 kts 289°
2026-04-22 03:24 19.57992 -101.34388 32323 ft 453 kts 289°
2026-04-22 03:24 19.59025 -101.37418 32317 ft 434 kts 288°
2026-04-22 03:24 19.60041 -101.40404 32322 ft 425 kts 288°